DLH2GY LBBG-EPGD

Flight info

Callsign DLH2GY
Flight time 2h 10m
Altitude 34000
Route BUVAK T777 BALIK L619 ARGES DCT KARIL DCT KEKED DCT LENOV N133 GRUDA Z95 OSLOG
Aircraft A321/M-SDE3FGHIRWY/LB1

Departure

Time 2026-04-25 06:43
Airport Burgas Airport (LBBG)

Arrival

Time 2026-04-25 08:54
Airport Gdańsk Lech Wałęsa Airport (EPGD)
Time Latitude Longitude Altitude Speed Heading
2026-04-25 06:14 42.56735 27.51763 151 ft 0 kts 92°
2026-04-25 06:38 42.56735 27.51765 145 ft 1 kts 89°
2026-04-25 06:38 42.56739 27.51768 148 ft 1 kts 43°
2026-04-25 06:38 42.56756 27.51772 147 ft 5 kts 13°
2026-04-25 06:39 42.56799 27.51788 148 ft 8 kts 21°
2026-04-25 06:39 42.56846 27.51842 148 ft 10 kts 44°
2026-04-25 06:39 42.56910 27.51917 148 ft 14 kts 40°
2026-04-25 06:39 42.56985 27.52004 147 ft 15 kts 40°
2026-04-25 06:40 42.57065 27.52097 146 ft 16 kts 39°
2026-04-25 06:40 42.57162 27.52206 142 ft 19 kts 39°
2026-04-25 06:40 42.57266 27.52326 141 ft 20 kts 40°
2026-04-25 06:40 42.57375 27.52450 142 ft 20 kts 40°
2026-04-25 06:41 42.57482 27.52571 143 ft 20 kts 39°
2026-04-25 06:41 42.57590 27.52695 144 ft 20 kts 40°
2026-04-25 06:41 42.57699 27.52820 142 ft 21 kts 40°
2026-04-25 06:41 42.57814 27.52954 142 ft 22 kts 41°
2026-04-25 06:42 42.57935 27.53077 140 ft 18 kts 20°
2026-04-25 06:42 42.58007 27.52997 142 ft 14 kts 279°
2026-04-25 06:42 42.58015 27.52885 143 ft 11 kts 287°
2026-04-25 06:42 42.57985 27.52814 144 ft 9 kts 224°
2026-04-25 06:43 42.57875 27.52669 145 ft 52 kts 224°
2026-04-25 06:43 42.57444 27.52097 144 ft 119 kts 224°
2026-04-25 06:43 42.56715 27.51137 146 ft 171 kts 224°
2026-04-25 06:43 42.55829 27.50022 740 ft 172 kts 224°
2026-04-25 06:44 42.55347 27.48577 1364 ft 175 kts 276°
2026-04-25 06:44 42.55897 27.47154 1949 ft 183 kts 319°
2026-04-25 06:44 42.57060 27.46272 2295 ft 202 kts 334°
2026-04-25 06:44 42.58360 27.45373 2685 ft 216 kts 331°
2026-04-25 06:45 42.59748 27.44321 2857 ft 243 kts 329°
2026-04-25 06:45 42.61247 27.43137 3312 ft 256 kts 329°
2026-04-25 06:45 42.62805 27.41884 3976 ft 263 kts 328°
2026-04-25 06:45 42.64470 27.40806 4481 ft 267 kts 346°
2026-04-25 06:46 42.66301 27.40419 4886 ft 271 kts 351°
2026-04-25 06:46 42.68165 27.40003 5151 ft 272 kts 349°
2026-04-25 06:46 42.70032 27.39546 5377 ft 272 kts 349°
2026-04-25 06:46 42.71910 27.39086 5626 ft 274 kts 349°
2026-04-25 06:47 42.73790 27.38622 5840 ft 275 kts 349°
2026-04-25 06:47 42.75654 27.38159 6003 ft 276 kts 348°
2026-04-25 06:47 42.77567 27.37890 6013 ft 277 kts
2026-04-25 06:47 42.79476 27.38281 5998 ft 277 kts 12°
2026-04-25 06:48 42.81370 27.38821 6453 ft 277 kts 11°
2026-04-25 06:48 42.83253 27.39338 7184 ft 280 kts 11°
2026-04-25 06:48 42.85175 27.39873 7907 ft 283 kts 11°
2026-04-25 06:48 42.87115 27.40420 8659 ft 284 kts 11°
2026-04-25 06:49 42.89053 27.40973 9440 ft 285 kts 11°
2026-04-25 06:49 42.91004 27.41527 10098 ft 288 kts 10°
2026-04-25 06:49 42.92963 27.42077 10647 ft 293 kts 10°
2026-04-25 06:49 42.95000 27.42642 11007 ft 307 kts 10°
2026-04-25 06:50 42.97145 27.43230 11277 ft 321 kts 10°
2026-04-25 06:50 42.99417 27.43543 11496 ft 336 kts 358°
2026-04-25 06:50 43.01788 27.43181 11760 ft 348 kts 348°
2026-04-25 06:50 43.04203 27.42580 11951 ft 364 kts 349°
2026-04-25 06:51 43.06737 27.42047 12407 ft 369 kts 351°
2026-04-25 06:51 43.09286 27.41578 13077 ft 369 kts 352°
2026-04-25 06:51 43.11852 27.41155 13671 ft 372 kts 352°
2026-04-25 06:51 43.14406 27.40707 14111 ft 377 kts 351°
2026-04-25 06:52 43.17028 27.40209 14596 ft 380 kts 351°
2026-04-25 06:52 43.19660 27.39686 15090 ft 383 kts 351°
2026-04-25 06:52 43.22315 27.39146 15587 ft 386 kts 351°
2026-04-25 06:52 43.24949 27.38606 16075 ft 388 kts 351°
2026-04-25 06:53 43.27629 27.38062 16558 ft 391 kts 351°
2026-04-25 06:53 43.30333 27.37520 17016 ft 393 kts 351°
2026-04-25 06:53 43.33056 27.36977 17473 ft 396 kts 351°
2026-04-25 06:53 43.35764 27.36436 17929 ft 398 kts 351°
2026-04-25 06:54 43.38522 27.35882 18369 ft 401 kts 351°
2026-04-25 06:54 43.41288 27.35325 18758 ft 403 kts 351°
2026-04-25 06:54 43.44035 27.34772 19145 ft 404 kts 351°
2026-04-25 06:54 43.46833 27.34208 19556 ft 406 kts 351°
2026-04-25 06:55 43.49646 27.33639 19974 ft 408 kts 351°
2026-04-25 06:55 43.52462 27.33069 20371 ft 409 kts 351°
2026-04-25 06:55 43.55258 27.32504 20777 ft 411 kts 351°
2026-04-25 06:55 43.58100 27.31929 21180 ft 413 kts 351°
2026-04-25 06:56 43.60955 27.31350 21588 ft 414 kts 351°
2026-04-25 06:56 43.63819 27.30746 21984 ft 416 kts 348°
2026-04-25 06:56 43.66575 27.29663 22357 ft 417 kts 338°
2026-04-25 06:56 43.69187 27.27899 22726 ft 419 kts 328°
2026-04-25 06:57 43.71548 27.25518 23098 ft 421 kts 320°
2026-04-25 06:57 43.73764 27.22936 23452 ft 423 kts 320°
2026-04-25 06:57 43.76025 27.20312 23794 ft 424 kts 320°
2026-04-25 06:57 43.78300 27.17674 24112 ft 426 kts 320°
2026-04-25 06:58 43.80548 27.15063 24431 ft 427 kts 320°
2026-04-25 06:58 43.82828 27.12414 24759 ft 428 kts 320°
2026-04-25 06:58 43.85118 27.09747 25085 ft 430 kts 320°
2026-04-25 06:58 43.87416 27.07071 25415 ft 431 kts 320°
2026-04-25 06:59 43.89717 27.04389 25733 ft 432 kts 320°
2026-04-25 06:59 43.91996 27.01725 26036 ft 434 kts 320°
2026-04-25 06:59 43.94310 26.99015 26338 ft 435 kts 320°
2026-04-25 06:59 43.96638 26.96287 26631 ft 436 kts 320°
2026-04-25 07:00 43.98939 26.93593 26906 ft 438 kts 320°
2026-04-25 07:00 44.01269 26.90861 27172 ft 439 kts 320°
2026-04-25 07:00 44.03610 26.88108 27423 ft 440 kts 320°
2026-04-25 07:00 44.05918 26.85386 27663 ft 441 kts 320°
2026-04-25 07:01 44.08264 26.82621 27908 ft 441 kts 320°
2026-04-25 07:01 44.10633 26.79905 28240 ft 440 kts 322°
2026-04-25 07:01 44.13038 26.77273 28590 ft 438 kts 323°
2026-04-25 07:01 44.15437 26.74717 28933 ft 437 kts 323°
2026-04-25 07:02 44.17856 26.72156 29274 ft 435 kts 323°
2026-04-25 07:02 44.20264 26.69590 29612 ft 434 kts 323°
2026-04-25 07:02 44.22625 26.67053 29951 ft 432 kts 323°
2026-04-25 07:02 44.25005 26.64474 30264 ft 431 kts 323°
2026-04-25 07:03 44.27369 26.61896 30544 ft 430 kts 323°
2026-04-25 07:03 44.29697 26.59347 30809 ft 429 kts 323°
2026-04-25 07:03 44.32044 26.56770 31069 ft 428 kts 323°
2026-04-25 07:03 44.34384 26.54203 31340 ft 427 kts 323°
2026-04-25 07:04 44.36721 26.51638 31615 ft 426 kts 323°
2026-04-25 07:04 44.39022 26.49115 31881 ft 425 kts 323°
2026-04-25 07:04 44.41353 26.46561 32147 ft 424 kts 323°
2026-04-25 07:04 44.43679 26.44014 32399 ft 423 kts 323°
2026-04-25 07:05 44.45968 26.41501 32650 ft 422 kts 323°
2026-04-25 07:05 44.48280 26.38956 32909 ft 421 kts 323°
2026-04-25 07:05 44.50589 26.36412 33166 ft 420 kts 323°
2026-04-25 07:05 44.52890 26.33880 33420 ft 419 kts 323°
2026-04-25 07:06 44.55158 26.31385 33676 ft 419 kts 323°
2026-04-25 07:06 44.57442 26.28863 33926 ft 418 kts 323°
2026-04-25 07:06 44.59730 26.26327 34062 ft 418 kts 323°
2026-04-25 07:07 44.64269 26.21285 34082 ft 417 kts 323°
2026-04-25 07:07 44.68824 26.16226 34082 ft 416 kts 323°
2026-04-25 07:08 44.73338 26.11212 34084 ft 416 kts 323°
2026-04-25 07:08 44.77875 26.06156 34083 ft 415 kts 323°
2026-04-25 07:09 44.82403 26.01089 34090 ft 415 kts 323°
2026-04-25 07:09 44.86901 25.96047 34094 ft 416 kts 323°
2026-04-25 07:10 44.91437 25.90958 34101 ft 416 kts 323°
2026-04-25 07:10 44.95941 25.85905 34102 ft 415 kts 323°
2026-04-25 07:11 45.00468 25.80813 34105 ft 415 kts 322°
2026-04-25 07:11 45.04965 25.75739 34102 ft 415 kts 322°
2026-04-25 07:12 45.09454 25.70673 34101 ft 414 kts 322°
2026-04-25 07:12 45.16214 25.63006 34097 ft 414 kts 322°
2026-04-25 07:13 45.20672 25.57929 34094 ft 413 kts 322°
2026-04-25 07:13 45.25164 25.52810 34093 ft 413 kts 322°
2026-04-25 07:14 45.29622 25.47728 34094 ft 412 kts 322°
2026-04-25 07:14 45.34098 25.42605 34089 ft 412 kts 322°
2026-04-25 07:15 45.38535 25.37516 34087 ft 412 kts 322°
2026-04-25 07:15 45.42987 25.32410 34090 ft 411 kts 322°
2026-04-25 07:16 45.47438 25.27281 34085 ft 411 kts 322°
2026-04-25 07:16 45.51861 25.22183 34086 ft 410 kts 322°
2026-04-25 07:17 45.56317 25.17036 34089 ft 410 kts 322°
2026-04-25 07:17 45.60723 25.11935 34086 ft 409 kts 322°
2026-04-25 07:18 45.65146 25.06793 34083 ft 409 kts 321°
2026-04-25 07:18 45.69538 25.01687 34082 ft 409 kts 322°
2026-04-25 07:19 45.73944 24.96542 34082 ft 408 kts 321°
2026-04-25 07:19 45.78323 24.91429 34082 ft 408 kts 321°
2026-04-25 07:20 45.82719 24.86280 34079 ft 408 kts 321°
2026-04-25 07:20 45.86376 24.81990 34072 ft 407 kts 321°
2026-04-25 07:21 45.91485 24.75995 34072 ft 407 kts 321°
2026-04-25 07:21 45.95134 24.71704 34071 ft 408 kts 321°
2026-04-25 07:22 46.00246 24.65672 34067 ft 408 kts 321°
2026-04-25 07:22 46.03899 24.61346 34064 ft 408 kts 321°
2026-04-25 07:23 46.08290 24.56142 34065 ft 408 kts 321°
2026-04-25 07:23 46.12658 24.50950 34067 ft 408 kts 321°
2026-04-25 07:24 46.17019 24.45761 34072 ft 408 kts 321°
2026-04-25 07:24 46.21417 24.40521 34074 ft 408 kts 321°
2026-04-25 07:25 46.25770 24.35307 34078 ft 408 kts 321°
2026-04-25 07:25 46.30149 24.30064 34085 ft 408 kts 321°
2026-04-25 07:26 46.34491 24.24858 34082 ft 407 kts 321°
2026-04-25 07:26 46.38839 24.19632 34083 ft 407 kts 321°
2026-04-25 07:27 46.43197 24.14384 34080 ft 406 kts 320°
2026-04-25 07:27 46.47516 24.09160 34080 ft 406 kts 320°
2026-04-25 07:28 46.51846 24.03910 34078 ft 405 kts 320°
2026-04-25 07:28 46.56145 23.98687 34069 ft 404 kts 320°
2026-04-25 07:29 46.60469 23.93427 34062 ft 404 kts 320°
2026-04-25 07:29 46.64760 23.88216 34060 ft 403 kts 320°
2026-04-25 07:30 46.69067 23.82959 34062 ft 403 kts 320°
2026-04-25 07:30 46.73346 23.77720 34057 ft 403 kts 320°
2026-04-25 07:31 46.77641 23.72454 34056 ft 403 kts 320°
2026-04-25 07:31 46.81910 23.67207 34055 ft 402 kts 320°
2026-04-25 07:32 46.86188 23.61927 34057 ft 402 kts 320°
2026-04-25 07:32 46.90455 23.56663 34055 ft 402 kts 320°
2026-04-25 07:33 46.94710 23.51411 34050 ft 402 kts 319°
2026-04-25 07:33 46.98993 23.46108 34046 ft 402 kts 319°
2026-04-25 07:34 47.03225 23.40845 34042 ft 402 kts 319°
2026-04-25 07:34 47.07496 23.35521 34040 ft 402 kts 319°
2026-04-25 07:35 47.11731 23.30231 34043 ft 401 kts 319°
2026-04-25 07:35 47.15993 23.24903 34038 ft 401 kts 319°
2026-04-25 07:36 47.20221 23.19616 34037 ft 401 kts 319°
2026-04-25 07:36 47.24472 23.14274 34040 ft 401 kts 319°
2026-04-25 07:37 47.28689 23.08961 34038 ft 401 kts 319°
2026-04-25 07:37 47.32931 23.03617 34032 ft 400 kts 319°
2026-04-25 07:38 47.37138 22.98301 34036 ft 400 kts 319°
2026-04-25 07:38 47.41375 22.92927 34036 ft 400 kts 318°
2026-04-25 07:39 47.45570 22.87590 34044 ft 400 kts 319°
2026-04-25 07:39 47.49799 22.82218 34049 ft 400 kts 318°
2026-04-25 07:40 47.53989 22.76879 34047 ft 399 kts 318°
2026-04-25 07:40 47.58199 22.71495 34050 ft 399 kts 318°
2026-04-25 07:41 47.62379 22.66136 34048 ft 399 kts 318°
2026-04-25 07:41 47.66586 22.60731 34042 ft 399 kts 318°
2026-04-25 07:42 47.70760 22.55364 34045 ft 399 kts 318°
2026-04-25 07:42 47.74961 22.49955 34038 ft 398 kts 318°
2026-04-25 07:43 47.79113 22.44578 34033 ft 398 kts 316°
2026-04-25 07:43 47.82978 22.38683 34025 ft 397 kts 313°
2026-04-25 07:44 47.86811 22.32739 34025 ft 397 kts 313°
2026-04-25 07:44 47.90612 22.26829 34031 ft 397 kts 313°
2026-04-25 07:45 47.94449 22.20870 34023 ft 397 kts 313°
2026-04-25 07:45 47.98246 22.14947 34030 ft 397 kts 313°
2026-04-25 07:46 48.02064 22.08982 34043 ft 397 kts 313°
2026-04-25 07:46 48.05854 22.03052 34037 ft 397 kts 313°
2026-04-25 07:47 48.09666 21.97059 34047 ft 396 kts 313°
2026-04-25 07:47 48.13452 21.91096 34041 ft 396 kts 313°
2026-04-25 07:48 48.17257 21.85093 34047 ft 396 kts 313°
2026-04-25 07:48 48.21037 21.79122 34031 ft 396 kts 313°
2026-04-25 07:49 48.24832 21.73111 34040 ft 396 kts 313°
2026-04-25 07:49 48.28595 21.67127 34034 ft 396 kts 313°
2026-04-25 07:50 48.32380 21.61105 34022 ft 396 kts 313°
2026-04-25 07:50 48.36169 21.55064 34032 ft 396 kts 312°
2026-04-25 07:51 48.39922 21.49059 34034 ft 396 kts 312°
2026-04-25 07:51 48.43697 21.43002 34023 ft 396 kts 312°
2026-04-25 07:52 48.47453 21.36961 34038 ft 396 kts 312°
2026-04-25 07:52 48.51437 21.31213 34025 ft 398 kts 323°
2026-04-25 07:53 48.56465 21.27712 34025 ft 406 kts 342°
2026-04-25 07:53 48.62007 21.25841 34025 ft 407 kts 342°
2026-04-25 07:54 48.67517 21.23960 34026 ft 408 kts 342°
2026-04-25 07:54 48.73062 21.22053 34029 ft 408 kts 342°
2026-04-25 07:55 48.78614 21.20137 34027 ft 409 kts 342°
2026-04-25 07:55 48.84129 21.18242 34028 ft 409 kts 342°
2026-04-25 07:56 48.89693 21.16328 34025 ft 409 kts 342°
2026-04-25 07:56 48.95220 21.14425 34021 ft 409 kts 342°
2026-04-25 07:57 49.00789 21.12492 34017 ft 409 kts 342°
2026-04-25 07:57 49.06319 21.10583 34019 ft 409 kts 342°
2026-04-25 07:58 49.11882 21.08642 34017 ft 409 kts 342°
2026-04-25 07:58 49.17409 21.06708 34019 ft 409 kts 342°
2026-04-25 07:59 49.22963 21.04774 34017 ft 409 kts 342°
2026-04-25 07:59 49.28484 21.02834 34016 ft 408 kts 341°
2026-04-25 08:00 49.33982 21.00798 34014 ft 405 kts 336°
2026-04-25 08:00 49.39266 20.97849 34012 ft 404 kts 335°
2026-04-25 08:01 49.44555 20.94876 34017 ft 404 kts 335°
2026-04-25 08:01 49.49788 20.91916 34018 ft 403 kts 335°
2026-04-25 08:02 49.55067 20.88931 34021 ft 403 kts 335°
2026-04-25 08:02 49.60327 20.85938 34024 ft 403 kts 334°
2026-04-25 08:03 49.65563 20.82954 34027 ft 402 kts 334°
2026-04-25 08:03 49.70816 20.79961 34023 ft 402 kts 334°
2026-04-25 08:04 49.76030 20.76977 34027 ft 401 kts 334°
2026-04-25 08:04 49.81267 20.73967 34028 ft 401 kts 334°
2026-04-25 08:05 49.86470 20.70968 34025 ft 401 kts 334°
2026-04-25 08:05 49.91704 20.67942 34029 ft 400 kts 334°
2026-04-25 08:06 49.96928 20.64930 34024 ft 400 kts 334°
2026-04-25 08:06 50.02124 20.61925 34022 ft 400 kts 334°
2026-04-25 08:07 50.07350 20.58889 34023 ft 399 kts 334°
2026-04-25 08:07 50.12534 20.55873 34021 ft 399 kts 334°
2026-04-25 08:08 50.17717 20.52855 34025 ft 399 kts 334°
2026-04-25 08:08 50.22922 20.49809 34019 ft 399 kts 333°
2026-04-25 08:09 50.28091 20.46779 34023 ft 398 kts 333°
2026-04-25 08:09 50.33279 20.43733 34018 ft 398 kts 333°
2026-04-25 08:10 50.38474 20.40683 34015 ft 398 kts 333°
2026-04-25 08:10 50.43704 20.37913 34014 ft 402 kts 339°
2026-04-25 08:11 50.49147 20.35888 34014 ft 403 kts 340°
2026-04-25 08:11 50.54633 20.33915 34008 ft 403 kts 340°
2026-04-25 08:12 50.60079 20.31944 34007 ft 403 kts 340°
2026-04-25 08:12 50.65556 20.29925 34008 ft 403 kts 340°
2026-04-25 08:13 50.70992 20.27904 34005 ft 403 kts 339°
2026-04-25 08:14 50.79177 20.24882 34007 ft 404 kts 340°
2026-04-25 08:14 50.84655 20.22854 34002 ft 404 kts 339°
2026-04-25 08:15 50.90089 20.20834 33999 ft 404 kts 339°
2026-04-25 08:15 50.95578 20.18783 33993 ft 404 kts 340°
2026-04-25 08:16 51.01033 20.16746 33989 ft 405 kts 340°
2026-04-25 08:16 51.06529 20.14687 33990 ft 406 kts 340°
2026-04-25 08:17 51.12042 20.12610 33980 ft 407 kts 340°
2026-04-25 08:17 51.17522 20.10539 33984 ft 407 kts 340°
2026-04-25 08:18 51.23058 20.08448 33970 ft 408 kts 340°
2026-04-25 08:18 51.28567 20.06365 33965 ft 410 kts 341°
2026-04-25 08:19 51.34140 20.04240 33957 ft 411 kts 341°
2026-04-25 08:19 51.39698 20.02125 33950 ft 413 kts 341°
2026-04-25 08:20 51.45309 19.99977 33944 ft 415 kts 341°
2026-04-25 08:20 51.50923 19.97827 33942 ft 416 kts 342°
2026-04-25 08:21 51.56544 19.95687 33941 ft 418 kts 342°
2026-04-25 08:21 51.62226 19.93509 33937 ft 419 kts 342°
2026-04-25 08:22 51.67885 19.91327 33931 ft 420 kts 342°
2026-04-25 08:22 51.73594 19.89114 33931 ft 421 kts 342°
2026-04-25 08:23 51.78707 19.87121 33934 ft 422 kts 342°
2026-04-25 08:23 51.84403 19.84898 33935 ft 423 kts 342°
2026-04-25 08:24 51.90145 19.82674 33933 ft 424 kts 342°
2026-04-25 08:24 51.95892 19.80436 33934 ft 424 kts 342°
2026-04-25 08:25 52.01600 19.78200 33933 ft 424 kts 342°
2026-04-25 08:25 52.07344 19.75942 33930 ft 425 kts 342°
2026-04-25 08:26 52.13064 19.73695 33930 ft 425 kts 342°
2026-04-25 08:26 52.18812 19.71427 33924 ft 424 kts 342°
2026-04-25 08:27 52.24527 19.69171 33934 ft 424 kts 342°
2026-04-25 08:27 52.30260 19.66893 33925 ft 423 kts 342°
2026-04-25 08:28 52.35964 19.64626 33924 ft 423 kts 342°
2026-04-25 08:28 52.41689 19.62348 33918 ft 422 kts 342°
2026-04-25 08:29 52.47375 19.60077 33913 ft 422 kts 342°
2026-04-25 08:29 52.53091 19.57785 33898 ft 421 kts 341°
2026-04-25 08:30 52.58745 19.55497 33903 ft 420 kts 341°
2026-04-25 08:30 52.64448 19.53194 33900 ft 420 kts 341°
2026-04-25 08:31 52.70102 19.50914 33902 ft 419 kts 341°
2026-04-25 08:31 52.75770 19.48618 33901 ft 419 kts 341°
2026-04-25 08:32 52.81396 19.46338 33640 ft 415 kts 341°
2026-04-25 08:32 52.84199 19.45210 33363 ft 412 kts 341°
2026-04-25 08:32 52.86981 19.44093 33085 ft 410 kts 341°
2026-04-25 08:32 52.89730 19.42984 32424 ft 416 kts 341°
2026-04-25 08:33 52.92569 19.41822 31536 ft 421 kts 341°
2026-04-25 08:33 52.95432 19.40628 30719 ft 422 kts 341°
2026-04-25 08:33 52.98277 19.39429 29957 ft 422 kts 341°
2026-04-25 08:33 53.01100 19.38266 29138 ft 421 kts 341°
2026-04-25 08:34 53.03955 19.37101 28150 ft 423 kts 341°
2026-04-25 08:34 53.06820 19.35912 27303 ft 422 kts 341°
2026-04-25 08:34 53.09644 19.34735 26864 ft 413 kts 341°
2026-04-25 08:34 53.12375 19.33612 26385 ft 405 kts 341°
2026-04-25 08:35 53.15096 19.32509 25901 ft 398 kts 342°
2026-04-25 08:35 53.17786 19.31431 25159 ft 398 kts 342°
2026-04-25 08:35 53.20482 19.30335 24391 ft 398 kts 342°
2026-04-25 08:35 53.23110 19.29237 23932 ft 391 kts 342°
2026-04-25 08:36 53.25737 19.28138 23503 ft 384 kts 342°
2026-04-25 08:36 53.28307 19.27064 22909 ft 379 kts 342°
2026-04-25 08:36 53.30866 19.25995 22189 ft 378 kts 342°
2026-04-25 08:36 53.33375 19.24949 21662 ft 372 kts 342°
2026-04-25 08:37 53.35876 19.23911 21146 ft 367 kts 342°
2026-04-25 08:37 53.38336 19.22895 20647 ft 362 kts 342°
2026-04-25 08:37 53.39944 19.22233 20346 ft 358 kts 342°
2026-04-25 08:37 53.42349 19.21239 19890 ft 352 kts 341°
2026-04-25 08:38 53.45474 19.19935 19317 ft 345 kts 341°
2026-04-25 08:38 53.47805 19.18945 18903 ft 348 kts 341°
2026-04-25 08:38 53.49369 19.18274 18643 ft 352 kts 341°
2026-04-25 08:38 53.51765 19.17240 18261 ft 357 kts 341°
2026-04-25 08:39 53.54174 19.16208 17715 ft 356 kts 341°
2026-04-25 08:39 53.56546 19.15202 17097 ft 353 kts 341°
2026-04-25 08:39 53.58906 19.14196 16696 ft 345 kts 341°
2026-04-25 08:39 53.61236 19.13213 16310 ft 342 kts 341°
2026-04-25 08:40 53.63540 19.12247 15877 ft 342 kts 341°
2026-04-25 08:40 53.65828 19.11292 15421 ft 342 kts 341°
2026-04-25 08:40 53.68146 19.10327 14912 ft 342 kts 340°
2026-04-25 08:40 53.70464 19.09355 14397 ft 341 kts 340°
2026-04-25 08:41 53.72735 19.08391 13921 ft 339 kts 340°
2026-04-25 08:41 53.75022 19.07409 13433 ft 337 kts 340°
2026-04-25 08:41 53.77293 19.06428 12912 ft 334 kts 340°
2026-04-25 08:41 53.79502 19.05475 12406 ft 330 kts 340°
2026-04-25 08:42 53.81730 19.04520 11907 ft 326 kts 340°
2026-04-25 08:42 53.83897 19.03602 11427 ft 322 kts 340°
2026-04-25 08:42 53.86051 19.02691 10974 ft 316 kts 340°
2026-04-25 08:42 53.88161 19.01787 10638 ft 307 kts 340°
2026-04-25 08:43 53.90188 19.00923 10491 ft 292 kts 340°
2026-04-25 08:43 53.92125 19.00113 10313 ft 281 kts 340°
2026-04-25 08:43 53.93964 18.99335 10119 ft 271 kts 340°
2026-04-25 08:43 53.95765 18.98565 9930 ft 261 kts 340°
2026-04-25 08:44 53.97509 18.97815 9659 ft 256 kts 340°
2026-04-25 08:44 53.99213 18.97082 9301 ft 254 kts 340°
2026-04-25 08:44 54.00916 18.96326 8932 ft 252 kts 339°
2026-04-25 08:44 54.02616 18.95568 8505 ft 253 kts 340°
2026-04-25 08:45 54.04329 18.94820 8075 ft 254 kts 340°
2026-04-25 08:45 54.06054 18.94084 7644 ft 256 kts 340°
2026-04-25 08:45 54.07763 18.93368 7229 ft 256 kts 341°
2026-04-25 08:45 54.09500 18.92648 6827 ft 257 kts 341°
2026-04-25 08:46 54.11239 18.91909 6441 ft 256 kts 340°
2026-04-25 08:46 54.12968 18.91150 6051 ft 256 kts 340°
2026-04-25 08:46 54.14657 18.90389 5763 ft 252 kts 340°
2026-04-25 08:46 54.16333 18.89644 5527 ft 246 kts 340°
2026-04-25 08:47 54.17971 18.88925 5308 ft 239 kts 340°
2026-04-25 08:47 54.19567 18.88223 5092 ft 233 kts 340°
2026-04-25 08:47 54.21096 18.87559 4870 ft 226 kts 340°
2026-04-25 08:47 54.22611 18.86911 4649 ft 221 kts 340°
2026-04-25 08:48 54.24120 18.86264 4428 ft 223 kts 339°
2026-04-25 08:48 54.25604 18.85616 4220 ft 222 kts 339°
2026-04-25 08:48 54.27053 18.84807 4071 ft 215 kts 326°
2026-04-25 08:48 54.28224 18.83311 4035 ft 207 kts 310°
2026-04-25 08:49 54.29072 18.81358 4021 ft 203 kts 295°
2026-04-25 08:49 54.29643 18.79198 4049 ft 196 kts 291°
2026-04-25 08:49 54.30166 18.77099 3978 ft 192 kts 291°
2026-04-25 08:49 54.30690 18.75007 3813 ft 189 kts 291°
2026-04-25 08:50 54.31209 18.72950 3570 ft 187 kts 291°
2026-04-25 08:50 54.31717 18.70910 3314 ft 185 kts 290°
2026-04-25 08:50 54.32219 18.68919 3072 ft 183 kts 290°
2026-04-25 08:50 54.32717 18.66926 2837 ft 180 kts 290°
2026-04-25 08:51 54.33199 18.64982 2596 ft 170 kts 289°
2026-04-25 08:51 54.33649 18.63181 2342 ft 163 kts 289°
2026-04-25 08:51 54.34085 18.61428 2117 ft 155 kts 289°
2026-04-25 08:51 54.34493 18.59799 1928 ft 139 kts 289°
2026-04-25 08:52 54.34857 18.58340 1718 ft 130 kts 288°
2026-04-25 08:52 54.35200 18.56954 1529 ft 127 kts 288°
2026-04-25 08:52 54.35542 18.55572 1360 ft 125 kts 288°
2026-04-25 08:52 54.35880 18.54205 1197 ft 123 kts 288°
2026-04-25 08:53 54.36214 18.52853 1048 ft 124 kts 288°
2026-04-25 08:53 54.36556 18.51473 845 ft 127 kts 289°
2026-04-25 08:53 54.36899 18.50093 665 ft 127 kts 288°
2026-04-25 08:53 54.37239 18.48719 503 ft 123 kts 286°
2026-04-25 08:54 54.37540 18.47489 462 ft 99 kts 292°
2026-04-25 08:54 54.37741 18.46678 456 ft 49 kts 293°
2026-04-25 08:54 54.37862 18.46182 456 ft 42 kts 293°
2026-04-25 08:54 54.38000 18.45831 455 ft 33 kts 321°
2026-04-25 08:55 54.38118 18.45702 455 ft 14 kts 354°
2026-04-25 08:55 54.38135 18.45814 454 ft 9 kts 112°
2026-04-25 08:55 54.38107 18.45921 454 ft 11 kts 114°
2026-04-25 08:55 54.38104 18.46033 456 ft 11 kts 71°
2026-04-25 08:56 54.38160 18.46095 456 ft 9 kts 23°
2026-04-25 08:56 54.38173 18.46181 456 ft 9 kts 114°
2026-04-25 08:56 54.38145 18.46291 456 ft 11 kts 113°
2026-04-25 08:56 54.38113 18.46419 457 ft 12 kts 112°
2026-04-25 08:57 54.38093 18.46502 455 ft 4 kts 112°
2026-04-25 08:57 54.38107 18.46539 457 ft 5 kts 34°
2026-04-25 08:57 54.38125 18.46554 456 ft 3 kts 24°
2026-04-25 08:57 54.38131 18.46558 456 ft 0 kts 22°